TimeCST,TemperatureF,Dew PointF,Humidity,Sea Level PressureIn,VisibilityMPH,Wind Direction,Wind SpeedMPH,Gust SpeedMPH,PrecipitationIn,Events,Conditions,WindDirDegrees,DateUTC
12:15 AM,53.8,45.9,75,30.28,10.0,NNE,23.0,28.8,N/A,,Scattered Clouds,20,2013-11-24 06:15:00
12:35 AM,53.8,45.3,73,30.28,10.0,NNE,19.6,27.6,N/A,,Scattered Clouds,30,2013-11-24 06:35:00
12:55 AM,53.8,43.2,67,30.28,10.0,NNE,20.7,29.9,N/A,,Scattered Clouds,20,2013-11-24 06:55:00
1:15 AM,53.6,43.0,67,30.28,10.0,NNE,21.9,26.5,N/A,,Mostly Cloudy,30,2013-11-24 07:15:00
1:35 AM,53.1,43.9,71,30.28,10.0,NE,13.8,23.0,N/A,,Mostly Cloudy,50,2013-11-24 07:35:00
1:55 AM,52.9,43.0,69,30.28,10.0,NE,20.7,26.5,N/A,,Mostly Cloudy,50,2013-11-24 07:55:00
2:15 AM,52.7,42.1,67,30.28,10.0,ENE,17.3,25.3,N/A,,Mostly Cloudy,70,2013-11-24 08:15:00
2:35 AM,52.9,41.7,66,30.28,10.0,East,17.3,25.3,N/A,,Scattered Clouds,80,2013-11-24 08:35:00
2:55 AM,52.9,41.5,65,30.27,10.0,East,17.3,24.2,N/A,,Clear,80,2013-11-24 08:55:00
3:15 AM,52.7,40.5,63,30.27,10.0,East,18.4,25.3,N/A,,Clear,80,2013-11-24 09:15:00
3:35 AM,52.0,39.7,63,30.27,10.0,East,17.3,28.8,N/A,,Clear,90,2013-11-24 09:35:00
3:55 AM,51.8,39.6,63,30.26,10.0,East,20.7,27.6,N/A,,Clear,90,2013-11-24 09:55:00
4:15 AM,51.8,40.5,65,30.27,10.0,East,17.3,24.2,N/A,,Mostly Cloudy,100,2013-11-24 10:15:00
4:35 AM,51.1,39.4,64,30.27,10.0,East,16.1,26.5,N/A,,Mostly Cloudy,100,2013-11-24 10:35:00
4:55 AM,50.9,39.4,65,30.28,10.0,East,19.6,28.8,N/A,,Scattered Clouds,90,2013-11-24 10:55:00
5:15 AM,50.7,39.0,64,30.28,10.0,East,19.6,26.5,N/A,,Clear,100,2013-11-24 11:15:00
5:35 AM,50.5,39.0,65,30.29,10.0,East,17.3,28.8,N/A,,Clear,90,2013-11-24 11:35:00
5:55 AM,50.0,38.5,65,30.30,10.0,East,20.7,28.8,N/A,,Clear,80,2013-11-24 11:55:00
6:15 AM,49.3,38.1,65,30.30,10.0,East,20.7,29.9,N/A,,Clear,100,2013-11-24 12:15:00
6:35 AM,48.6,37.2,65,30.30,10.0,East,23.0,28.8,N/A,,Clear,80,2013-11-24 12:35:00
6:55 AM,48.4,36.9,64,30.29,10.0,East,23.0,29.9,N/A,,Clear,80,2013-11-24 12:55:00
7:15 AM,48.4,37.8,67,30.30,10.0,ESE,16.1,26.5,N/A,,Clear,110,2013-11-24 13:15:00
7:35 AM,48.4,35.4,61,30.31,10.0,East,19.6,31.1,N/A,,Clear,100,2013-11-24 13:35:00
7:55 AM,48.6,35.6,61,30.32,10.0,ESE,16.1,26.5,N/A,,Clear,110,2013-11-24 13:55:00
8:15 AM,48.7,36.1,62,30.33,10.0,East,20.7,27.6,N/A,,Clear,90,2013-11-24 14:15:00
8:35 AM,49.8,36.0,59,30.33,10.0,East,21.9,27.6,N/A,,Clear,100,2013-11-24 14:35:00
8:55 AM,49.6,35.8,59,30.34,10.0,East,19.6,26.5,N/A,,Clear,100,2013-11-24 14:55:00
9:15 AM,50.7,35.6,56,30.34,10.0,East,20.7,29.9,N/A,,Clear,100,2013-11-24 15:15:00
9:35 AM,49.3,34.3,56,30.34,10.0,ESE,19.6,28.8,N/A,,Clear,110,2013-11-24 15:35:00
9:55 AM,50.4,34.5,55,30.34,10.0,ESE,18.4,25.3,N/A,,Clear,110,2013-11-24 15:55:00
10:15 AM,50.9,33.4,51,30.35,10.0,ESE,18.4,26.5,N/A,,Clear,120,2013-11-24 16:15:00
10:35 AM,52.0,34.5,51,30.34,10.0,East,17.3,26.5,N/A,,Clear,100,2013-11-24 16:35:00
10:55 AM,52.5,34.7,51,30.34,10.0,ESE,17.3,25.3,N/A,,Clear,110,2013-11-24 16:55:00
11:15 AM,51.8,34.0,51,30.34,10.0,ESE,16.1,21.9,N/A,,Clear,120,2013-11-24 17:15:00
11:35 AM,53.2,34.0,48,30.33,10.0,ESE,16.1,24.2,N/A,,Clear,110,2013-11-24 17:35:00
11:55 AM,53.6,34.3,48,30.31,10.0,ESE,18.4,25.3,N/A,,Clear,110,2013-11-24 17:55:00
12:15 PM,54.7,33.6,45,30.29,10.0,ESE,16.1,25.3,N/A,,Clear,110,2013-11-24 18:15:00
12:35 PM,55.4,33.3,43,30.29,10.0,ESE,18.4,25.3,N/A,,Clear,110,2013-11-24 18:35:00
12:55 PM,55.6,32.5,42,30.28,10.0,ESE,18.4,24.2,N/A,,Clear,110,2013-11-24 18:55:00
1:15 PM,56.5,32.5,40,30.28,10.0,ESE,15.0,25.3,N/A,,Clear,120,2013-11-24 19:15:00
1:35 PM,56.8,32.9,40,30.26,10.0,ESE,18.4,23.0,N/A,,Clear,110,2013-11-24 19:35:00
1:55 PM,57.4,32.4,39,30.26,10.0,SE,16.1,20.7,N/A,,Clear,130,2013-11-24 19:55:00
2:15 PM,57.2,32.4,39,30.26,10.0,ESE,15.0,23.0,N/A,,Clear,120,2013-11-24 20:15:00
2:35 PM,57.2,32.5,39,30.25,10.0,ESE,13.8,19.6,N/A,,Clear,120,2013-11-24 20:35:00
2:55 PM,57.2,32.0,38,30.26,10.0,ESE,16.1,-,N/A,,Clear,120,2013-11-24 20:55:00
3:15 PM,57.2,31.8,38,30.26,10.0,SE,12.7,17.3,N/A,,Clear,130,2013-11-24 21:15:00
3:35 PM,57.2,32.0,38,30.27,10.0,SE,13.8,-,N/A,,Clear,130,2013-11-24 21:35:00
3:55 PM,56.8,31.5,38,30.27,10.0,ESE,12.7,18.4,N/A,,Clear,120,2013-11-24 21:55:00
4:15 PM,56.3,31.8,39,30.28,10.0,SE,12.7,18.4,N/A,,Clear,130,2013-11-24 22:15:00
4:35 PM,55.6,32.2,41,30.28,10.0,SE,11.5,-,N/A,,Clear,130,2013-11-24 22:35:00
4:55 PM,54.7,32.0,42,30.28,10.0,SE,11.5,-,N/A,,Clear,130,2013-11-24 22:55:00
5:15 PM,54.0,33.6,46,30.28,10.0,SE,11.5,-,N/A,,Clear,130,2013-11-24 23:15:00
5:35 PM,54.3,32.9,44,30.28,10.0,SE,11.5,17.3,N/A,,Clear,130,2013-11-24 23:35:00
5:55 PM,53.6,34.3,48,30.28,10.0,SE,11.5,-,N/A,,Clear,130,2013-11-24 23:55:00
6:15 PM,53.6,34.3,48,30.29,10.0,SE,11.5,16.1,N/A,,Clear,130,2013-11-25 00:15:00
6:35 PM,53.1,35.4,51,30.29,10.0,SE,10.4,-,N/A,,Clear,130,2013-11-25 00:35:00
6:55 PM,52.9,35.4,52,30.30,10.0,ESE,10.4,-,N/A,,Clear,120,2013-11-25 00:55:00
7:15 PM,52.7,35.4,52,30.30,10.0,SE,13.8,-,N/A,,Clear,130,2013-11-25 01:15:00
7:35 PM,52.5,35.4,52,30.30,10.0,SE,16.1,20.7,N/A,,Clear,130,2013-11-25 01:35:00
7:55 PM,52.2,36.3,55,30.30,10.0,SE,12.7,-,N/A,,Clear,130,2013-11-25 01:55:00
8:15 PM,52.2,36.3,55,30.31,10.0,SE,13.8,19.6,N/A,,Clear,130,2013-11-25 02:15:00
8:35 PM,52.0,36.5,56,30.31,10.0,SE,11.5,17.3,N/A,,Clear,130,2013-11-25 02:35:00
8:55 PM,51.8,37.6,58,30.31,10.0,SE,10.4,-,N/A,,Clear,130,2013-11-25 02:55:00
9:15 PM,51.4,37.2,58,30.31,10.0,SE,11.5,-,N/A,,Clear,130,2013-11-25 03:15:00
9:35 PM,51.4,37.4,59,30.31,10.0,SE,11.5,16.1,N/A,,Clear,130,2013-11-25 03:35:00
9:55 PM,51.4,38.3,61,30.31,10.0,ESE,9.2,16.1,N/A,,Clear,120,2013-11-25 03:55:00
10:15 PM,51.1,39.0,63,30.31,10.0,ESE,8.1,-,N/A,,Clear,120,2013-11-25 04:15:00
10:35 PM,51.1,38.8,63,30.30,10.0,SE,10.4,-,N/A,,Clear,130,2013-11-25 04:35:00
10:55 PM,51.3,38.8,63,30.29,10.0,SE,13.8,-,N/A,,Clear,130,2013-11-25 04:55:00
11:15 PM,51.1,38.8,63,30.28,10.0,SE,12.7,18.4,N/A,,Clear,130,2013-11-25 05:15:00
11:35 PM,51.1,39.2,64,30.28,10.0,SE,12.7,19.6,N/A,,Clear,130,2013-11-25 05:35:00
11:55 PM,51.1,39.2,64,30.26,10.0,SE,12.7,18.4,N/A,,Scattered Clouds,130,2013-11-25 05:55:00